Weather Roundup
Issued by NWS

Home | Current Version | Previous Version | Text Only | Print | Product List | Glossary On
Versions: 1 2 3 4 5 6 7 8 9 10 11 12 13 14 15 16 17 18 19 20 21 22 23 24 25 26 27 28 29 30 31 32 33 34 35 36 37 38 39 40 41 42 43 44 45 46 47 48 49 50
000
NZUS93 KARX 020759
HRRWXR

CURRENT HOURLY OBSERVATIONS ACROSS
MUCH OF THE UPPER MISSISSIPPI VALLEY
NATIONAL WEATHER SERVICE LA CROSSE WI
300 AM CDT THU JUL 02 2015


...SOUTHEAST MINNESOTA...


CITY           SKY/WX    TMP DP  RH WIND       PRES   REMARKS
ROCHESTER      CLEAR     54  51  90 CALM      30.02S
ROCHESTER/MAYO FAIR      54  54  99 CALM      30.02S
WINONA         CLEAR     54  54 100 CALM      30.01R
AUSTIN         CLEAR     48  46  93 CALM      30.02R
ALBERT LEA     CLEAR     52  50  93 CALM      30.01S
DODGE CENTER   PTCLDY    48  48 100 CALM      30.02S
PRESTON        CLEAR     52  49  91 CALM      30.02S
OWATONNA       CLEAR     52  48  87 CALM      30.02S
FARIBAULT      CLEAR     48  46  93 CALM      30.03R FOG
$$

...ELSEWHERE IN MINNESOTA...


CITY           SKY/WX    TMP DP  RH WIND       PRES   REMARKS
MINNEAPOLIS    PTCLDY    58  55  90 W3        30.02R
INTNL FALLS    CLEAR     54  53  97 CALM      29.95F
DULUTH         CLEAR     56  49  77 CALM      30.00F
RED WING       CLEAR     54  52  94 CALM      30.00S
REDWOOD FALLS  CLEAR     56  52  86 CALM      29.99F
MANKATO        CLEAR     55  48  76 CALM      30.01S
WORTHINGTON    CLEAR     54  48  82 E5        30.00S
FAIRMONT       CLEAR     54  45  71 SE3       29.99F
$$

...SOUTHWEST WISCONSIN...


CITY           SKY/WX    TMP DP  RH WIND       PRES   REMARKS
LA CROSSE      CLEAR     54  52  93 SE5       30.00R
PRAIRIE DU CHI NOT AVBL
BOSCOBEL       FOG       53  51  93 CALM      30.01S VSB 1/4
LONE ROCK      NOT AVBL
PLATTEVILLE    NOT AVBL
FORT MC COY    NOT AVBL
CAMP DOUGLAS   CLEAR     45  45 100 CALM      30.00S
VIROQUA        NOT AVBL
WIS DELLS      NOT AVBL
$$

...ELSEWHERE IN WISCONSIN...


CITY           SKY/WX    TMP DP  RH WIND       PRES   REMARKS
MILWAUKEE      CLEAR     53  47  79 NE8       30.01S
MADISON        CLEAR     50  48  93 NE3       30.01F FOG
GREEN BAY      CLEAR     49  47  93 CALM      30.03F
EAU CLAIRE     CLEAR     52  49  89 CALM      30.00R
BLACK RVR FLS  NOT AVBL
MEDFORD        NOT AVBL
WAUSAU         CLEAR     52  48  86 CALM      30.03R
WIS RAPIDS     CLEAR     53  49  86 SE7       30.04R
MARSHFIELD     CLEAR     53  48  83 E7        30.02R
RICE LAKE      CLEAR     52  51  95 CALM      30.03S FOG
$$

...NORTHEAST IOWA...


CITY           SKY/WX    TMP DP  RH WIND       PRES   REMARKS
DECORAH        NOT AVBL
MASON CITY     CLEAR     50  48  93 CALM      30.02F
CHARLES CITY   NOT AVBL
OELWEIN        NOT AVBL
$$

...ELSEWHERE IN IOWA...


CITY           SKY/WX    TMP DP  RH WIND       PRES   REMARKS
DES MOINES     CLEAR     62  55  77 E9        29.95S
IOWA CITY      CLOUDY    61  54  77 E7        29.98R
FORT DODGE     CLEAR     54  50  87 E6        29.97F
$$

...NORTHERN ILLINOIS...


CITY           SKY/WX    TMP DP  RH WIND       PRES   REMARKS
CHICAGO-OHARE  PTCLDY    53  50  89 NE6       30.00R
CHICAGO-MIDWAY CLOUDY    58  53  84 NE7       29.99S
MOLINE         PTCLDY    60  55  83 E12       29.97F
ROCKFORD       CLEAR     53  49  86 NE3       30.03F
PEORIA         CLOUDY    63  53  70 NE10      29.95F
$$

NOTE: "FAIR" INDICATES FEW OR NO CLOUDS BELOW 12,000 FEET WITH NO
SIGNIFICANT WEATHER AND/OR OBSTRUCTIONS TO VISIBILITY. WIND
SPEEDS ARE IN MILES-PER-HOUR.



USA.gov is the U.S. government's official web portal to all federal, state and local government web resources and services.